Flag for Guernsey Weather past 2 weeks in St. Peter Port, Guernsey

46 °F

Passing clouds.

Feels Like: 40 °F
Forecast: 49 / 55 °F
Wind: 14 mph from West

Location: Guernsey Airport

Current Time: Nov 28, 2015 at 6:38:32 AM

Latest Report: Nov 28, 2015 at 5:50 AM

Visibility: N/A

Pressure: 30.09 "Hg

Humidity: 57%

Dew point: 32 °F

Location of St. Peter PortLocation

Historic Weather in St. Peter Port — Graph


St. Peter Port temperature yesterday

Maximum temperature yesterday: 54 °F (at 6:50 AM)
Minimum temperature yesterday: 48 °F (at 6:20 PM)
Average temperature yesterday: 52 °F

Past Weeks' High & Low Weather Summary

High59 °F (Nov 17, 10:50 AM)100% (Nov 16, 4:20 AM)30.42 "Hg (Nov 16, 4:20 AM)
Low41 °F (Nov 23, 3:50 AM)40% (Nov 21, 1:20 PM)29.71 "Hg (Nov 21, 6:20 AM)
Average52 °F81%30.03 "Hg
* Reported Nov 13 4:50 AM — Nov 28 4:50 AM, St. Peter Port, Weather by CustomWeather, © 2015

Note: Actual official high and low records may vary slightly from our data, if they occured in-between our weather recording intervals... More about our weather records


St. Peter Port weather history for previous 24 hours

Time TempWeatherWind HumidityBarometerVisibility
4:50 AM
Sat, Nov 28
46 °FScattered showers. Passing clouds.16 mph57%30.09 "HgN/A
4:20 AM46 °FSprinkles. Passing clouds.15 mph62%30.09 "HgN/A
3:50 AM46 °FPassing clouds.18 mph57%30.09 "HgN/A
8:50 PM
Fri, Nov 27
48 °FPassing clouds.25 mph66%29.92 "HgN/A
8:20 PM48 °FPassing clouds.25 mph76%29.89 "HgN/A
7:50 PM50 °FPassing clouds.26 mph76%29.89 "HgN/A
7:20 PM48 °FLight rain. Partly cloudy.23 mph87%29.86 "HgN/A
6:50 PM48 °FPartly cloudy.28 mph82%29.86 "HgN/A
6:20 PM48 °FLight rain. Partly cloudy.30 mph94%29.83 "Hg4 mi
5:50 PM52 °FPassing clouds.26 mph100%29.80 "Hg2 mi
5:20 PM54 °FPartly cloudy.21 mph94%29.80 "HgN/A
4:50 PM54 °FLight rain. Passing clouds.20 mph94%29.80 "Hg5 mi
4:20 PM54 °FLight rain. Partly cloudy.23 mph94%29.83 "Hg5 mi
3:50 PM52 °FLight rain. Broken clouds.21 mph94%29.83 "HgN/A
3:20 PM52 °FBroken clouds.21 mph94%29.83 "HgN/A
2:50 PM54 °FBroken clouds.21 mph88%29.86 "HgN/A
2:20 PM52 °FBroken clouds.21 mph94%29.86 "HgN/A
1:50 PM52 °FDrizzle. Broken clouds.22 mph100%29.89 "Hg2 mi
1:20 PM52 °FDrizzle. Broken clouds.20 mph94%29.89 "Hg5 mi
12:50 PM52 °FPartly sunny.20 mph100%29.89 "HgN/A
12:20 PM54 °FPartly sunny.20 mph88%29.92 "HgN/A
11:50 AM52 °FPartly sunny.18 mph94%29.95 "HgN/A
11:20 AM52 °FPartly sunny.18 mph94%29.95 "HgN/A
10:50 AM52 °FDrizzle. Partly sunny.18 mph100%29.98 "HgN/A
10:20 AM54 °FDrizzle. Partly sunny.16 mph94%29.98 "HgN/A
9:50 AM54 °FPartly sunny.17 mph94%29.98 "HgN/A
9:20 AM54 °FPartly sunny.15 mph94%29.98 "HgN/A
8:50 AM54 °FBroken clouds.15 mph94%30.01 "HgN/A
8:20 AM54 °FBroken clouds.13 mph100%30.01 "HgN/A
7:50 AM54 °FFog.14 mph100%30.01 "HgN/A
6:50 AM54 °FDrizzle. Fog.14 mph100%30.01 "Hg1 mi
6:20 AM52 °FDrizzle. Fog.13 mph100%30.04 "Hg1 mi
Weather by CustomWeather, © 2015

See weather overviewHow to use our weather pages